Regional Weather Roundup
Issued by NWS Albany, NY

Home | Current Version | Previous Version | Text Only | Print | Product List | Glossary On
Versions: 1 2 3 4 5 6 7 8 9 10 11 12 13 14 15 16 17 18 19 20 21 22 23 24 25 26 27 28 29 30 31 32 33 34 35 36 37 38 39 40 41 42 43 44 45 46 47 48 49 50
000
ASUS41 KALY 221210
RWRALY

NEW YORK STATE HOURLY WEATHER ROUNDUP
NATIONAL WEATHER SERVICE ALBANY NY
700 AM EST MON DEC 22 2014

NOTE: "FAIR" INDICATES FEW OR NO CLOUDS BELOW 12,000 FEET WITH NO
SIGNIFICANT WEATHER AND/OR NO OBSTRUCTIONS TO VISIBILITY.

NYZ032-033-038>043-046>054-057>066-NYZ062>081-221300-
EAST


CITY           SKY/WX    TMP DP  RH WIND       PRES   REMARKS
ALBANY         FLURRIES  29  24  82 N3        30.36F
GLENS FALLS    CLOUDY    27  23  85 NE3       30.36
POUGHKEEPSIE   CLOUDY    32  28  85 CALM      30.34S
NEWBURGH       CLOUDY    30  30 100 VRB5      30.33S WCI  25
MONTGOMERY     CLOUDY    31  28  89 N5        30.32R WCI  26
WHITE PLAINS   CLOUDY    34  31  88 NE5       30.29S WCI  30
ISLIP          CLOUDY    38  34  85 NE13      30.29S WCI  30
NEW YORK CITY  CLOUDY    36  32  85 NE8       30.31F WCI  30
CENTRAL PARK   CLOUDY    36  31  82 NE6       30.33S WCI  31
$$

NYZ005>009-017-018-044>046-055-056-221300-
CENTRAL


CITY           SKY/WX    TMP DP  RH WIND       PRES   REMARKS
FULTON         CLOUDY    30  23  75 CALM      30.28S
SYRACUSE       CLOUDY    29  24  82 E7        30.28F WCI  22
ROME           CLOUDY    29  23  78 E7        30.32S WCI  22
ELMIRA         CLOUDY    26  21  81 S7        30.27R WCI  18
BINGHAMTON     CLOUDY    27  23  85 SE5       30.22R WCI  22
MONTICELLO     CLOUDY    28  27  93 E7        30.27S WCI  21
$$

NYZ026>034-041>043-221300-
NORTH


CITY           SKY/WX    TMP DP  RH WIND       PRES   REMARKS
WATERTOWN      CLOUDY    23  17  78 NE7       30.32S WCI  15
FORT DRUM      NOT AVBL
MASSENA        CLOUDY    17  14  88 E6        30.41S FOG     WCI   9
SARANAC LAKE   MOCLDY     2  52 100 CALM      30.27S
PLATTSBURGH    CLOUDY    21  19  92 N6        30.40S FOG     WCI  13
$$

NYZ001>004-010>016-019>021-221300-
WEST


CITY           SKY/WX    TMP DP  RH WIND       PRES   REMARKS
NIAGARA FALLS  MOCLDY    27  22  81 E6        30.20R WCI  20
BUFFALO        MOCLDY    28  22  78 E7        30.19S WCI  21
DUNKIRK        PTCLDY    24  21  88 N5        30.17F WCI  18
JAMESTOWN      PTCLDY    21  19  93 S5        30.11F WCI  15
WELLSVILLE     CLEAR     21  17  84 SE8       30.15F WCI  11
ROCHESTER      MOCLDY    28  21  75 SE9       30.25S WCI  19
PENN YAN       PTCLDY    23  19  85 S3        30.24S
$$

             KEY
       WCI = WIND CHILL INDEX
       VSB = VISIBILITY
       HX  = HEAT INDEX
$$


USA.gov is the U.S. government's official web portal to all federal, state and local government web resources and services.